Weather in Gremyachevo

Russia / Kaluga Oblast     54°14′32″N   36°15′17″E
temp.,
°C
wind,
m/s
gust,
m/s
humid.,
%
clouds,
%
prec.,
mm/h
press.,
hPa
HPBL,
m
21 april, wed
wed2100:00+2ne4797100 0.3 1009440
03:00+2nne3698100 0.4 1007335
06:00+2nnw2599100 0.4 1005266
09:00+2w3599100 0.5 1006330
12:00+4w4791100 0.1 1008699
15:00+6w4678100 0.1 10091077
18:00+6sw3580100 0.1 1010251
21:00+4ssw3689100 0.3 1012197
22 april, thu
thu2200:00+4ssw4890100 0.0 1013291
03:00+3ssw4996100 0.1 1014370
06:00+4s389489 0.4 1015307
09:00+7ssw588050 0.4 1016593
12:00+12ssw576312 0.1 10151298
15:00+14s685950 0.7 10141623
18:00+12ssw597231 0.8 1014972
21:00+9s4129053 1.1 1015416
23 april, fri
fri2300:00+7s4129268 0.1 1015304
03:00+7s412916 0.3 1015299
06:00+7s5148641 0.1 1015409
09:00+10s5127898 0.3 1015663
12:00+15s8135520 0.4 10142069
15:00+15s61158100 1.5 10131852
18:00+13sse7116453 1.4 1012965
21:00+8ne119297 2.6 101247
24 april, sat
sat2400:00+8s4990100 1.0 1010567
03:00+4wnw6996100 4.1 1009497
06:00+2w4998100 3.0 1010447
09:00+4w3797100 4.4 1009631
12:00+7w4768100 0.9 10091432
15:00+9wsw684892 1.2 10092108
18:00+6wsw6869100 1.0 10091030
21:00+4wsw4979100 1.8 1010384
25 april, sun
sun2500:00+2sw49885 0.1 1010301
03:000wsw410947 0.1 1011334
06:000wsw4109554 0.0 1011373
09:00+4wsw587356 0.1 10111119
12:00+7wsw5756100 0.8 10111800
15:00+7wsw6753100 1.4 10101690
18:00+6wsw476360 1.1 10111225
21:00+2sw398273 1.3 1012256